Total_Precipitation_Accumulation
0.05 0.08 0.15 0.22 0.22 0.16 0.12 0.10 0.13 0.17 0.31 0.52 0.73 0.86 0.96 1.00 1.03 0.94 0.88 0.92 0.96 1.09 1.23 1.33 1.42 1.41 1.39 1.48 1.56 1.76 2.14 2.34 2.50 2.52 2.55 2.67 2.73 2.70 2.72 2.65 2.56 2.78 2.85 2.83
0.06 0.08 0.10 0.14 0.18 0.15 0.12 0.12 0.14 0.18 0.35 0.51 0.77 0.84 0.92 0.93 0.96 0.95 1.02 1.11 1.23 1.29 1.38 1.42 1.50 1.61 1.67 1.70 1.81 2.02 2.46 2.82 2.96 2.99 3.01 3.04 3.06 3.04 3.04 2.99 3.12 3.15 3.00 2.94
0.08 0.10 0.13 0.18 0.17 0.16 0.16 0.15 0.21 0.27 0.41 0.55 0.73 0.93 1.03 0.93 0.83 0.89 1.01 1.10 1.19 1.33 1.47 1.54 1.65 1.74 1.88 1.97 2.08 2.25 2.51 2.73 2.83 2.91 2.98 3.14 3.14 3.13 3.12 3.12 3.15 3.16 3.23 3.19
0.15 0.17 0.25 0.24 0.25 0.27 0.26 0.28 0.31 0.44 0.60 0.68 0.76 0.88 0.93 0.84 0.85 0.92 1.01 1.12 1.22 1.30 1.52 1.69 1.87 2.10 2.38 2.54 2.67 2.66 2.74 2.88 2.97 2.94 2.96 3.01 3.00 2.90 2.91 3.04 3.08 3.03 2.99 2.93
0.29 0.30 0.30 0.32 0.37 0.38 0.40 0.53 0.58 0.71 0.85 0.97 0.98 0.97 1.10 1.01 0.98 1.05 1.17 1.33 1.52 1.72 1.82 1.91 2.01 2.18 2.43 2.72 2.91 2.93 2.81 2.89 3.03 3.12 3.21 3.11 3.02 3.00 3.01 3.08 2.98 2.93 2.91 2.92
0.42 0.47 0.51 0.48 0.50 0.48 0.55 0.98 0.90 0.97 1.10 1.22 1.34 1.66 1.66 1.36 1.39 1.33 1.31 1.46 1.63 1.81 1.90 1.91 2.06 2.17 2.29 2.50 2.64 2.72 2.76 2.89 3.02 3.12 3.29 3.39 3.34 3.35 3.28 3.19 3.13 3.11 3.06 3.05
0.52 0.61 0.64 0.56 0.53 0.60 1.10 1.54 1.30 1.25 1.32 1.43 1.61 1.70 1.63 1.48 1.54 1.54 1.40 1.40 1.45 1.52 1.67 1.75 1.84 1.97 2.17 2.28 2.27 2.37 2.48 2.53 2.71 2.95 3.19 3.35 3.44 3.45 3.46 3.37 3.27 3.07 2.91 2.88
0.78 0.99 1.12 0.75 0.66 1.03 1.44 1.42 1.55 1.46 1.48 1.58 1.64 1.69 1.72 1.72 1.68 1.58 1.47 1.37 1.38 1.47 1.59 1.68 1.84 2.15 2.37 2.36 2.31 2.35 2.46 2.59 2.74 2.97 3.06 3.12 3.24 3.29 3.45 3.42 3.30 3.18 2.94 2.73
1.22 1.39 1.24 0.93 0.99 1.11 1.16 1.36 1.47 1.51 1.57 1.62 1.59 1.57 1.50 1.47 1.52 1.57 1.46 1.43 1.38 1.42 1.56 1.79 2.05 2.33 2.58 2.58 2.60 2.64 2.70 2.80 2.88 2.97 3.07 3.15 3.23 3.23 3.24 3.22 3.06 2.93 2.77 2.65
1.53 1.70 1.48 1.25 1.19 1.23 1.29 1.43 1.56 1.69 1.82 1.79 1.64 1.48 1.49 1.50 1.49 1.56 1.53 1.47 1.45 1.48 1.60 1.80 1.94 2.07 2.32 2.48 2.54 2.71 2.73 2.67 2.66 2.67 2.74 2.82 2.94 2.98 2.93 2.84 2.78 2.71 2.62 2.55
1.93 2.12 1.94 1.71 1.50 1.48 1.52 1.76 1.92 1.91 1.89 1.81 1.77 1.72 1.77 1.74 1.62 1.55 1.53 1.58 1.58 1.63 1.74 1.79 1.81 1.87 2.00 2.20 2.36 2.57 2.70 2.72 2.75 2.76 2.79 2.84 2.90 2.98 2.87 2.71 2.69 2.58 2.44 2.48
2.28 2.18 2.25 2.11 1.72 1.68 1.73 1.88 1.99 1.94 1.94 1.98 1.99 1.90 1.75 1.68 1.62 1.59 1.60 1.65 1.73 1.82 1.86 1.86 1.84 1.93 2.03 2.20 2.44 2.72 2.73 2.66 2.69 2.77 2.87 2.96 3.01 3.04 3.10 2.81 2.72 2.58 2.49 2.43
1.92 1.99 2.05 1.96 1.85 1.90 1.97 2.00 2.05 2.03 1.97 2.03 2.06 1.96 1.77 1.64 1.59 1.60 1.66 1.68 1.79 1.89 1.86 1.82 1.78 1.91 2.09 2.28 2.50 2.72 2.75 2.75 2.77 2.75 2.81 2.87 2.83 2.75 2.78 2.71 2.52 2.44 2.35 2.24
1.98 2.08 2.23 2.21 2.18 2.12 2.29 2.35 2.33 2.28 2.21 2.14 2.08 1.96 1.82 1.85 1.83 1.77 1.79 1.84 1.80 1.75 1.69 1.75 1.79 1.78 1.90 2.07 2.35 2.63 2.70 2.79 2.84 2.81 2.72 2.70 2.62 2.57 2.52 2.50 2.36 2.21 2.14 2.09
2.08 2.06 2.20 2.15 2.20 2.22 2.36 2.51 2.56 2.54 2.44 2.27 2.09 1.95 1.76 1.80 2.00 2.04 2.04 2.08 1.95 1.79 1.74 1.74 1.71 1.64 1.68 1.80 1.99 2.31 2.48 2.45 2.42 2.43 2.41 2.41 2.33 2.25 2.17 2.12 2.16 2.20 2.09 2.00
1.97 2.05 2.05 2.11 2.13 2.10 2.14 2.26 2.40 2.42 2.36 2.22 2.04 1.95 1.79 1.76 1.83 1.89 2.00 2.05 2.09 1.98 1.84 1.74 1.75 1.72 1.61 1.71 1.85 1.95 2.05 2.18 2.08 1.97 1.97 2.00 2.02 2.02 1.98 1.98 2.07 2.20 2.16 1.95
2.03 2.13 2.11 2.13 2.11 2.04 1.94 2.01 2.13 2.16 2.15 2.10 1.97 1.82 1.70 1.71 1.84 1.90 1.95 1.89 1.80 1.77 1.68 1.61 1.61 1.62 1.58 1.71 1.78 1.72 1.65 1.68 1.73 1.59 1.63 1.77 1.86 1.89 1.91 2.00 2.06 2.07 1.97 1.81
1.82 1.89 1.96 1.98 1.91 1.93 1.92 1.92 1.98 1.90 1.95 1.90 1.77 1.68 1.67 1.83 2.02 2.05 1.90 1.73 1.66 1.65 1.59 1.47 1.34 1.26 1.30 1.37 1.39 1.36 1.28 1.27 1.30 1.31 1.43 1.54 1.60 1.66 1.75 1.82 1.87 1.88 1.75 1.60
1.70 1.61 1.61 1.63 1.53 1.63 1.78 1.78 1.85 1.83 1.86 1.80 1.71 1.73 1.76 1.84 1.92 1.89 1.71 1.67 1.67 1.63 1.51 1.37 1.34 1.12 1.08 1.09 1.15 1.13 1.14 1.21 1.26 1.29 1.38 1.42 1.42 1.47 1.63 1.72 1.74 1.73 1.64 1.56
1.59 1.48 1.43 1.45 1.39 1.44 1.56 1.55 1.54 1.58 1.61 1.65 1.80 1.84 1.75 1.72 1.65 1.62 1.59 1.60 1.55 1.44 1.33 1.26 1.17 1.15 1.16 1.14 1.18 1.13 1.15 1.17 1.21 1.18 1.19 1.24 1.31 1.36 1.41 1.45 1.48 1.51 1.50 1.44
1.39 1.32 1.32 1.40 1.45 1.38 1.40 1.39 1.41 1.41 1.45 1.54 1.70 1.77 1.69 1.63 1.55 1.61 1.73 1.69 1.50 1.29 1.24 1.30 1.18 1.15 1.13 1.17 1.14 1.08 1.12 1.18 1.21 1.29 1.33 1.35 1.35 1.37 1.38 1.34 1.34 1.37 1.39 1.44
1.47 1.34 1.26 1.25 1.34 1.38 1.30 1.24 1.23 1.22 1.26 1.35 1.36 1.46 1.62 1.72 1.65 1.66 1.69 1.70 1.54 1.51 1.28 1.19 1.15 1.16 1.18 1.15 1.10 1.18 1.22 1.30 1.37 1.45 1.49 1.50 1.54 1.54 1.50 1.45 1.45 1.41 1.45 1.49
1.58 1.48 1.42 1.39 1.41 1.48 1.34 1.23 1.16 1.18 1.24 1.27 1.24 1.34 1.51 1.65 1.67 1.68 1.60 1.44 1.33 1.44 1.31 1.22 1.26 1.24 1.21 1.14 1.22 1.34 1.34 1.37 1.43 1.47 1.52 1.56 1.61 1.62 1.61 1.60 1.64 1.61 1.60 1.64
1.68 1.51 1.43 1.36 1.32 1.39 1.39 1.29 1.19 1.16 1.15 1.17 1.19 1.27 1.43 1.52 1.52 1.41 1.34 1.31 1.24 1.24 1.17 1.26 1.30 1.26 1.21 1.16 1.30 1.37 1.38 1.43 1.47 1.48 1.49 1.54 1.56 1.54 1.60 1.65 1.66 1.65 1.66 1.66
1.78 1.61 1.47 1.38 1.38 1.34 1.33 1.28 1.20 1.09 1.02 1.06 1.03 1.09 1.18 1.32 1.42 1.34 1.26 1.18 1.15 1.12 1.13 1.23 1.26 1.30 1.24 1.25 1.28 1.31 1.36 1.50 1.57 1.52 1.48 1.53 1.54 1.55 1.58 1.59 1.53 1.51 1.54 1.59
1.87 1.76 1.64 1.48 1.33 1.25 1.24 1.26 1.26 1.21 1.15 1.11 1.06 1.09 1.15 1.19 1.21 1.27 1.31 1.24 1.17 1.17 1.17 1.20 1.21 1.24 1.21 1.26 1.34 1.36 1.36 1.45 1.50 1.49 1.48 1.50 1.54 1.56 1.51 1.46 1.39 1.38 1.41 1.43
1.78 1.72 1.66 1.53 1.40 1.27 1.23 1.26 1.29 1.28 1.26 1.29 1.26 1.24 1.30 1.30 1.28 1.30 1.23 1.16 1.11 1.12 1.16 1.18 1.17 1.15 1.11 1.09 1.10 1.15 1.19 1.22 1.26 1.35 1.43 1.44 1.40 1.38 1.33 1.31 1.30 1.27 1.26 1.23